Location: Asheville, NC
(35.6000°N, 82.5500°W)
Time: 10:47:03

Vanguard 1 Rocket - Pass Details

Date: 17 March 2018
Orbit: 655 x 4222 km, 34.3° (Epoch: 20 March)

Event Time Altitude Azimuth Distance (km) Brightness Sun altitude
Rises 21:19:48 0° 275° (W) 4,188 12.3 -21.0°
Reaches altitude 10° 21:22:02 10° 274° (W) 3,502 11.5 -21.4°
Maximum altitude 21:31:24 81° 189° (S) 2,195 9.1 -23.3°
Enters shadow 21:40:38 34° 107° (ESE) 4,089 10.1 -25.1°
